Weather History for Corpus Christi NAS, TX

Change the Weather History Date:

Thursday, October 6, 2011

  Actual Average Record
Temperature  
Mean Temperature 80 °F -  
Max Temperature 89 °F 82 °F 90 °F (2000)
Min Temperature 73 °F 68 °F 59 °F (2001)
Cooling Degree Days 16    
Growing Degree Days 30 (Base 50)    
Moisture  
Dew Point 72 °F    
Average Humidity 71    
Maximum Humidity 93    
Minimum Humidity 61    
Precipitation  
Precipitation 0.00 in - - ()
Sea Level Pressure  
Sea Level Pressure 29.93 in    
Wind  
Wind Speed 10 mph (SE)    
Max Wind Speed 20 mph    
Max Gust Speed 25 mph    
Visibility 10 miles    
Events      
Averages and records for this station are not official NWS values.
T = Trace of Precipitation, MM = Missing Value Source: NWS Daily Summary

Daily Weather History Graph

Daily Weather History Graph

Search for Another Location

Airport:

Trip Planner

Search our weather history database for the weather conditions in past years. The results will help you decide how hot, cold, wet, or windy it might be!

Date:

Astronomy

Oct. 06, 2011 Rise Set
Actual Time 7:24 AM CDT 7:09 PM CDT
Civil Twilight 7:00 AM CDT 7:33 PM CDT
Nautical Twilight 6:33 AM CDT 8:00 PM CDT
Astronomical Twilight 6:06 AM CDT 8:27 PM CDT
Moon 4:01 PM CDT (10/6) 2:39 AM CDT (10/6)
Length of Visible Light 12h 32m
Length of Day
11h 45m
Waxing Gibbous, 75% of the Moon is Illuminated
Oct 6
Waxing Gibbous
Oct 11
Full
Oct 19
Last Quarter
Oct 26
New
Nov 2
First Quarter

Hourly Weather History & Observations

Time (CDT) Temp. Heat Index Dew Point Humidity Pressure Visibility Wind Dir Wind Speed Gust Speed Precip Events Conditions
12:56 AM 79.0 °F - 66.9 °F 66% 29.96 in 10.0 mi SE 11.5 mph - N/A   Partly Cloudy
1:56 AM 79.0 °F - 68.0 °F 69% 29.95 in 10.0 mi SE 11.5 mph - N/A   Clear
2:56 AM 79.0 °F - 69.1 °F 72% 29.94 in 10.0 mi SE 9.2 mph - N/A   Clear
3:56 AM 78.1 °F - 69.1 °F 74% 29.94 in 10.0 mi SE 8.1 mph - N/A   Partly Cloudy
4:56 AM 78.1 °F - 70.0 °F 76% 29.93 in 10.0 mi SE 8.1 mph - N/A   Partly Cloudy
5:56 AM 75.9 °F - 71.1 °F 85% 29.93 in 10.0 mi SSE 3.5 mph - N/A   Partly Cloudy
6:56 AM 75.9 °F - 71.1 °F 85% 29.94 in 10.0 mi Calm Calm - N/A   Scattered Clouds
7:56 AM 73.0 °F - 71.1 °F 93% 29.94 in 10.0 mi Calm Calm - N/A   Scattered Clouds
8:56 AM 82.0 °F 87.4 °F 73.0 °F 74% 29.96 in 10.0 mi Calm Calm - N/A   Scattered Clouds
9:56 AM 84.0 °F 89.6 °F 72.0 °F 67% 29.96 in 10.0 mi Calm Calm - N/A   Mostly Cloudy
10:56 AM 86.0 °F 93.8 °F 73.9 °F 67% 29.96 in 10.0 mi NE 10.4 mph - N/A   Scattered Clouds
11:56 AM 87.1 °F 93.6 °F 72.0 °F 61% 29.95 in 10.0 mi South 6.9 mph - N/A   Scattered Clouds
12:56 PM 87.1 °F 93.6 °F 72.0 °F 61% 29.94 in 10.0 mi ESE 5.8 mph - N/A   Scattered Clouds
1:56 PM 88.0 °F 95.6 °F 73.0 °F 61% 29.93 in 10.0 mi SE 11.5 mph - N/A   Scattered Clouds
2:56 PM 88.0 °F 95.6 °F 73.0 °F 61% 29.91 in 10.0 mi ESE 15.0 mph - N/A   Partly Cloudy
3:56 PM 87.1 °F 94.5 °F 73.0 °F 63% 29.90 in 10.0 mi SE 13.8 mph - N/A   Partly Cloudy
4:56 PM 87.1 °F 93.6 °F 72.0 °F 61% 29.89 in 10.0 mi ESE 15.0 mph - N/A   Scattered Clouds
5:56 PM 84.9 °F 90.7 °F 72.0 °F 65% 29.90 in 10.0 mi SE 16.1 mph - N/A   Scattered Clouds
6:56 PM 82.9 °F 87.5 °F 71.1 °F 67% 29.90 in 10.0 mi SE 19.6 mph 25.3 mph N/A   Scattered Clouds
7:56 PM 82.0 °F 86.7 °F 72.0 °F 71% 29.91 in 10.0 mi SE 17.3 mph 24.2 mph N/A   Partly Cloudy
8:56 PM 82.0 °F 87.4 °F 73.0 °F 74% 29.93 in 10.0 mi SE 17.3 mph - N/A   Partly Cloudy
9:56 PM 82.0 °F 87.9 °F 73.9 °F 76% 29.94 in 10.0 mi SE 16.1 mph - N/A   Scattered Clouds
10:56 PM 82.9 °F 89.4 °F 73.9 °F 74% 29.95 in 10.0 mi SE 19.6 mph 23.0 mph N/A   Scattered Clouds
11:56 PM 82.0 °F 87.9 °F 73.9 °F 76% 29.95 in 10.0 mi SE 16.1 mph - N/A   Partly Cloudy